Content
SEND FEEDBACK

Daily
Averages
Monthly
Summary
United States of America

SHELLEY, IDAHO


Home > North America > United States > Idaho
Elevation: 5730 feet     Latitude: 43 21N     Longitude: 111 47W

WEATHER
 
SELECT A DAY
Number of Records: 187,503;   Date Range: 1/1/95 - 8/12/14
 
SHARE

PRINT THIS DATA

[ ← Previous Day ]
WEATHER ALMANAC - JANUARY 31, 2013
[ Next Day → ]
[ °C ]   °F
Weather ElementAverageHighLow
Temperature32.3 °F36 °F (11:53 pm)28 °F (2:53 am)
Dewpoint28.3 °F30.9 °F (5:53 pm)24.8 °F (2:27 am)
Humidity85.2 %93 % (3:23 am)78 % (3:53 pm)
Barometer30.26 in30.35 in (10:53 am)30.18 in (2:27 am)
Wind Speed13.7 mph21.9 mph (7:53 am)
Wind Gust26.5 mph (7:53 am)
Weather ElementAverage
Visibility9.9 mi
Wind DirectionSSW (197.3 °)

Weather ElementTotal
Precipitation---
Heating Degree Days33 (Base 65)
Averaged from 33 records on January 31, 2013
WEATHER CONDITIONS BREAKOUT
WIND DIRECTION BREAKOUT
WEATHER BY HOUR - JANUARY 31, 2013
[ °C ]   °F
Local TimeTemperatureDewpointHumidityBarometerVisibilityWind DirectionWind SpeedGust SpeedPrecipitationEventsConditions
1:53 AM28.9 °F25.0 °F85 %30.24 in10.0 miSSW (210°)19.6 mphClear
2:27 AM28.4 °F24.8 °F86 %30.18 in10.0 miSSW (200°)19.6 mphScattered Clouds
2:53 AM28.0 °F25.0 °F88 %30.25 in10.0 miSSW (200°)18.4 mphPartly Cloudy
3:23 AM28.4 °F26.6 °F93 %30.19 in10.0 miSSW (200°)17.3 mphMostly Cloudy
4:53 AM30.9 °F27.0 °F85 %30.27 in10.0 miSouth (190°)16.1 mphOvercast
5:34 AM30.2 °F26.6 °F86 %30.21 in10.0 miSSW (210°)18.4 mphMostly Cloudy
5:53 AM30.9 °F27.0 °F85 %30.27 in10.0 miSSW (210°)17.3 mphMostly Cloudy
6:25 AM30.2 °F26.6 °F86 %30.21 in10.0 miSSW (210°)17.3 mphMostly Cloudy
6:53 AM30.9 °F27.0 °F85 %30.28 in10.0 miSSW (210°)18.4 mphOvercast
6:55 AM30.2 °F26.6 °F86 %30.21 in10.0 miSSW (210°)17.3 mphOvercast
7:53 AM30.9 °F27.0 °F85 %30.31 in10.0 miSW (220°)21.9 mph26.5 mphOvercast
8:53 AM30.9 °F27.0 °F85 %30.32 in10.0 miSW (220°)18.4 mphOvercast
9:30 AM30.2 °F26.6 °F86 %30.25 in10.0 miSSW (210°)18.4 mphScattered Clouds
9:53 AM32.0 °F27.0 °F82 %30.33 in10.0 miSSW (200°)19.6 mphPartly Cloudy
10:06 AM32.0 °F28.4 °F87 %30.26 in10.0 miSSW (210°)18.4 mphMostly Cloudy
10:53 AM32.0 °F28.0 °F85 %30.35 in10.0 miSSW (210°)18.4 mphOvercast
11:53 AM33.1 °F28.9 °F85 %30.34 in10.0 miSSW (210°)19.6 mphOvercast
12:53 PM34.0 °F28.9 °F82 %30.32 in10.0 miSSW (210°)16.1 mphOvercast
1:53 PM34.0 °F30.0 °F85 %30.32 in10.0 miSSW (210°)16.1 mphOvercast
2:46 PM33.8 °F30.2 °F87 %30.23 in10.0 miSSW (210°)15.0 mphOvercast
2:53 PM34.0 °F30.0 °F85 %30.32 in10.0 miSW (220°)13.8 mphOvercast
3:53 PM35.1 °F28.9 °F78 %30.30 in10.0 miSSW (210°)11.5 mphOvercast
4:53 PM35.1 °F30.0 °F82 %30.29 in10.0 miSSW (210°)5.8 mphOvercast
5:53 PM35.1 °F30.9 °F85 %30.29 in10.0 miSW (220°)9.2 mphOvercast
6:53 PM35.1 °F30.9 °F85 %30.29 in10.0 miSW (230°)6.9 mphOvercast
7:53 PM34.0 °F30.9 °F89 %30.28 in10.0 miSW (230°)5.8 mphOvercast
8:53 PM34.0 °F30.9 °F89 %30.28 in10.0 miWest (270°)3.5 mphOvercast
9:05 PM33.8 °F30.2 °F87 %30.22 in10.0 miCalmOvercast
10:16 PM32.0 °F28.4 °F87 %30.21 in10.0 miCalmOvercast
10:53 PM32.0 °F28.0 °F85 %30.27 in8.0 miSouth (170°)6.9 mph0.00 inOvercast
11:02 PM33.8 °F28.4 °F81 %30.19 in10.0 miSouth (190°)4.6 mphOvercast
11:31 PM35.6 °F30.2 °F81 %30.18 in10.0 miSSW (200°)11.5 mphOvercast
11:53 PM36.0 °F30.9 °F82 %30.23 in10.0 miSSW (200°)10.4 mphOvercast
Hourly data recorded from KIDA, located miles away from Shelley, Idaho







STORIES FROM OUR PARTNERS